Time,TemperatureF,DewpointF,PressureIn,WindDirection,WindDirectionDegrees,WindSpeedMPH,WindSpeedGustMPH,Humidity,HourlyPrecipIn,Conditions,Clouds,dailyrainin,SoftwareType,DateUTC
2013-02-14 03:02:00,27.9,11.6,29.96,SSW,202,0.0,3.0,50,0.00,,,0.00,Wunderground v.1.15,2013-02-14 10:02:00,
2013-02-14 03:07:00,27.6,11.4,29.96,SSW,202,0.0,3.0,50,0.00,,,0.00,Wunderground v.1.15,2013-02-14 10:07:00,
2013-02-14 03:16:00,27.6,12.2,29.95,SE,128,0.0,3.0,52,0.00,,,0.00,Wunderground v.1.15,2013-02-14 10:16:00,
2013-02-14 03:22:00,27.8,13.7,29.95,East,79,0.0,3.0,55,0.00,,,0.00,Wunderground v.1.15,2013-02-14 10:22:00,
2013-02-14 03:31:00,28.2,14.9,29.95,ENE,62,0.0,3.0,57,0.00,,,0.00,Wunderground v.1.15,2013-02-14 10:31:00,
2013-02-14 03:41:00,28.8,16.3,29.95,North,356,0.0,3.0,59,0.00,,,0.00,Wunderground v.1.15,2013-02-14 10:41:00,
2013-02-14 03:51:00,29.0,16.4,29.94,North,359,0.0,3.0,59,0.00,,,0.00,Wunderground v.1.15,2013-02-14 10:51:00,
2013-02-14 03:56:00,29.1,16.5,29.94,NNE,14,0.0,3.0,59,0.00,,,0.00,Wunderground v.1.15,2013-02-14 10:56:00,
2013-02-14 04:11:00,29.1,16.9,29.94,NE,55,0.0,3.0,60,0.00,,,0.00,Wunderground v.1.15,2013-02-14 11:11:00,
2013-02-14 04:21:00,29.0,16.8,29.95,NE,55,0.0,3.0,60,0.00,,,0.00,Wunderground v.1.15,2013-02-14 11:21:00,
2013-02-14 04:26:00,29.0,17.2,29.95,NE,55,0.0,3.0,61,0.00,,,0.00,Wunderground v.1.15,2013-02-14 11:26:00,
2013-02-14 04:36:00,28.7,16.9,29.95,NE,55,0.0,3.0,61,0.00,,,0.00,Wunderground v.1.15,2013-02-14 11:36:00,
2013-02-14 04:41:00,28.4,16.7,29.95,SE,138,0.0,3.0,61,0.00,,,0.00,Wunderground v.1.15,2013-02-14 11:41:00,
2013-02-14 04:46:00,28.2,16.1,29.96,SE,138,0.0,3.0,60,0.00,,,0.00,Wunderground v.1.15,2013-02-14 11:46:00,
2013-02-14 04:51:00,27.9,16.2,29.96,SE,138,0.0,3.0,61,0.00,,,0.00,Wunderground v.1.15,2013-02-14 11:51:00,
2013-02-14 05:01:00,27.8,16.1,29.96,SE,138,0.0,3.0,61,0.00,,,0.00,Wunderground v.1.15,2013-02-14 12:01:00,
2013-02-14 05:07:00,27.6,15.9,29.97,SE,138,0.0,3.0,61,0.00,,,0.00,Wunderground v.1.15,2013-02-14 12:07:00,
2013-02-14 05:16:00,27.3,15.6,29.97,SE,138,0.0,3.0,61,0.00,,,0.00,Wunderground v.1.15,2013-02-14 12:16:00,
2013-02-14 05:21:00,27.2,15.5,29.98,SE,138,0.0,3.0,61,0.00,,,0.00,Wunderground v.1.15,2013-02-14 12:21:00,
2013-02-14 05:31:00,26.7,15.0,29.99,SE,138,0.0,3.0,61,0.00,,,0.00,Wunderground v.1.15,2013-02-14 12:31:00,
2013-02-14 05:41:00,26.4,15.5,29.99,SE,138,0.0,3.0,63,0.00,,,0.00,Wunderground v.1.15,2013-02-14 12:41:00,
2013-02-14 05:46:00,26.4,15.5,30.00,SE,138,0.0,3.0,63,0.00,,,0.00,Wunderground v.1.15,2013-02-14 12:46:00,
2013-02-14 05:56:00,26.1,14.8,30.00,SE,138,0.0,3.0,62,0.00,,,0.00,Wunderground v.1.15,2013-02-14 12:56:00,
2013-02-14 06:07:00,26.0,15.1,30.00,SE,138,0.0,3.0,63,0.00,,,0.00,Wunderground v.1.15,2013-02-14 13:07:00,
2013-02-14 06:16:00,26.0,15.8,30.00,SE,138,0.0,3.0,65,0.00,,,0.00,Wunderground v.1.15,2013-02-14 13:16:00,
2013-02-14 06:21:00,26.3,16.5,30.00,SE,138,0.0,3.0,66,0.00,,,0.00,Wunderground v.1.15,2013-02-14 13:21:00,
2013-02-14 07:16:00,27.2,17.0,30.03,SE,138,0.0,3.0,65,0.00,,,0.00,Wunderground v.1.15,2013-02-14 14:16:00,
2013-02-14 07:26:00,27.2,17.0,30.03,SE,138,0.0,3.0,65,0.00,,,0.00,Wunderground v.1.15,2013-02-14 14:26:00,
2013-02-14 07:36:00,27.6,16.6,30.03,SE,138,0.0,3.0,63,0.00,,,0.00,Wunderground v.1.15,2013-02-14 14:36:00,
2013-02-14 07:46:00,27.9,15.0,30.03,SE,138,0.0,3.0,58,0.00,,,0.00,Wunderground v.1.15,2013-02-14 14:46:00,
2013-02-14 07:51:00,27.9,15.0,30.03,SE,138,0.0,3.0,58,0.00,,,0.00,Wunderground v.1.15,2013-02-14 14:51:00,
2013-02-14 08:01:00,27.9,14.6,30.04,SE,138,0.0,3.0,57,0.00,,,0.00,Wunderground v.1.15,2013-02-14 15:01:00,
2013-02-14 08:07:00,27.9,14.6,30.04,SE,138,0.0,3.0,57,0.00,,,0.00,Wunderground v.1.15,2013-02-14 15:07:00,
2013-02-14 08:16:00,28.1,14.4,30.05,SE,138,0.0,3.0,56,0.00,,,0.00,Wunderground v.1.15,2013-02-14 15:16:00,
2013-02-14 08:26:00,28.2,14.5,30.05,SE,138,0.0,3.0,56,0.00,,,0.00,Wunderground v.1.15,2013-02-14 15:26:00,
2013-02-14 08:36:00,28.5,14.4,30.11,SE,138,0.0,3.0,55,0.00,,,0.00,Wunderground v.1.15,2013-02-14 15:36:00,
2013-02-14 08:41:00,28.8,14.6,30.11,SE,138,0.0,3.0,55,0.00,,,0.00,Wunderground v.1.15,2013-02-14 15:41:00,
2013-02-14 08:51:00,29.4,14.4,30.11,SE,138,0.0,3.0,53,0.00,,,0.00,Wunderground v.1.15,2013-02-14 15:51:00,
2013-02-14 08:56:00,29.7,14.6,30.11,SE,138,0.0,3.0,53,0.00,,,0.00,Wunderground v.1.15,2013-02-14 15:56:00,
2013-02-14 09:07:00,30.7,14.7,30.09,SE,138,0.0,3.0,51,0.00,,,0.00,Wunderground v.1.15,2013-02-14 16:07:00,
2013-02-14 09:16:00,31.5,14.5,30.09,SE,138,0.0,3.0,49,0.00,,,0.00,Wunderground v.1.15,2013-02-14 16:16:00,
2013-02-14 09:21:00,31.9,15.3,30.09,SE,138,0.0,3.0,50,0.00,,,0.00,Wunderground v.1.15,2013-02-14 16:21:00,
2013-02-14 09:26:00,32.4,14.4,30.09,SE,138,0.0,3.0,47,0.00,,,0.00,Wunderground v.1.15,2013-02-14 16:26:00,
2013-02-14 09:36:00,33.1,14.5,30.11,SE,138,0.0,3.0,46,0.00,,,0.00,Wunderground v.1.15,2013-02-14 16:36:00,
2013-02-14 09:41:00,33.5,13.9,30.11,SE,138,0.0,3.0,44,0.00,,,0.00,Wunderground v.1.15,2013-02-14 16:41:00,
2013-02-14 09:46:00,34.0,13.3,30.11,SE,138,0.0,3.0,42,0.00,,,0.00,Wunderground v.1.15,2013-02-14 16:46:00,
2013-02-14 09:56:00,35.3,13.9,30.11,SE,138,0.0,3.0,41,0.00,,,0.00,Wunderground v.1.15,2013-02-14 16:56:00,
2013-02-14 10:07:00,36.2,14.2,30.11,SE,138,0.0,3.0,40,0.00,,,0.00,Wunderground v.1.15,2013-02-14 17:07:00,
2013-02-14 10:16:00,36.5,13.9,30.11,SE,138,0.0,3.0,39,0.00,,,0.00,Wunderground v.1.15,2013-02-14 17:16:00,
2013-02-14 10:21:00,36.8,14.1,30.10,SE,138,0.0,3.0,39,0.00,,,0.00,Wunderground v.1.15,2013-02-14 17:21:00,
2013-02-14 13:27:00,27.0,20.1,30.28,SE,131,0.0,3.0,75,0.00,,,0.00,Wunderground v.1.15,2013-02-14 20:27:00,
2013-02-14 13:36:00,27.0,20.1,30.28,North,1,0.0,3.0,75,0.00,,,0.00,Wunderground v.1.15,2013-02-14 20:36:00,
2013-02-14 13:46:00,27.3,20.1,30.29,SW,217,0.0,3.0,74,0.00,,,0.00,Wunderground v.1.15,2013-02-14 20:46:00,
2013-02-14 13:56:00,27.6,20.4,30.29,SSW,208,0.0,3.0,74,0.00,,,0.00,Wunderground v.1.15,2013-02-14 20:56:00,
2013-02-14 14:07:00,27.8,20.6,30.28,SSW,210,0.0,3.0,74,0.00,,,0.00,Wunderground v.1.15,2013-02-14 21:07:00,
2013-02-14 14:16:00,27.9,20.7,30.28,SW,222,0.0,3.0,74,0.00,,,0.00,Wunderground v.1.15,2013-02-14 21:16:00,
2013-02-14 14:21:00,27.8,20.6,30.28,SW,223,0.0,3.0,74,0.00,,,0.00,Wunderground v.1.15,2013-02-14 21:21:00,
2013-02-14 14:26:00,27.6,20.4,30.28,SW,223,0.0,3.0,74,0.00,,,0.00,Wunderground v.1.15,2013-02-14 21:26:00,
2013-02-14 14:36:00,27.2,20.0,30.30,West,277,0.0,3.0,74,0.00,,,0.00,Wunderground v.1.15,2013-02-14 21:36:00,
2013-02-14 14:41:00,27.0,19.8,30.30,West,277,0.0,3.0,74,0.00,,,0.00,Wunderground v.1.15,2013-02-14 21:41:00,
2013-02-14 14:51:00,27.2,20.0,30.31,West,277,0.0,3.0,74,0.00,,,0.00,Wunderground v.1.15,2013-02-14 21:51:00,
2013-02-14 14:56:00,27.3,20.1,30.31,West,277,0.0,3.0,74,0.00,,,0.00,Wunderground v.1.15,2013-02-14 21:56:00,
2013-02-14 15:07:00,27.6,20.4,30.30,West,277,0.0,3.0,74,0.00,,,0.01,Wunderground v.1.15,2013-02-14 22:07:00,
2013-02-14 15:16:00,27.5,20.0,30.30,West,277,0.0,3.0,73,0.00,,,0.01,Wunderground v.1.15,2013-02-14 22:16:00,
2013-02-14 15:21:00,27.3,20.1,30.30,West,277,0.0,3.0,74,0.00,,,0.01,Wunderground v.1.15,2013-02-14 22:21:00,
2013-02-14 15:31:00,27.3,19.8,30.30,West,277,0.0,3.0,73,0.00,,,0.01,Wunderground v.1.15,2013-02-14 22:31:00,
2013-02-14 15:36:00,27.2,19.7,30.30,West,277,0.0,3.0,73,0.00,,,0.01,Wunderground v.1.15,2013-02-14 22:36:00,
2013-02-14 15:41:00,27.2,19.7,30.30,West,277,0.0,3.0,73,0.00,,,0.01,Wunderground v.1.15,2013-02-14 22:41:00,
2013-02-14 15:51:00,27.2,19.7,30.30,West,277,0.0,3.0,73,0.00,,,0.01,Wunderground v.1.15,2013-02-14 22:51:00,
2013-02-14 15:56:00,27.2,19.7,30.30,West,277,0.0,3.0,73,0.00,,,0.01,Wunderground v.1.15,2013-02-14 22:56:00,
2013-02-14 16:07:00,26.9,19.1,30.31,North,0,0.0,3.0,72,0.00,,,0.01,Wunderground v.1.15,2013-02-14 23:07:00,
2013-02-14 16:16:00,26.7,18.9,30.31,North,0,0.0,3.0,72,0.00,,,0.01,Wunderground v.1.15,2013-02-14 23:16:00,
2013-02-14 16:21:00,26.7,19.2,30.31,North,0,0.0,3.0,73,0.00,,,0.01,Wunderground v.1.15,2013-02-14 23:21:00,
2013-02-14 16:31:00,26.7,18.9,30.31,NNW,330,0.0,3.0,72,0.00,,,0.01,Wunderground v.1.15,2013-02-14 23:31:00,
2013-02-14 16:36:00,26.7,18.6,30.32,NNW,330,0.0,3.0,71,0.00,,,0.01,Wunderground v.1.15,2013-02-14 23:36:00,
2013-02-14 17:11:00,26.3,17.2,30.33,NNW,330,0.0,3.0,68,0.00,,,0.01,Wunderground v.1.15,2013-02-15 00:11:00,
2013-02-14 17:16:00,26.3,17.2,30.33,NNW,330,0.0,3.0,68,0.00,,,0.01,Wunderground v.1.15,2013-02-15 00:16:00,
2013-02-14 17:26:00,26.3,17.2,30.33,North,10,0.0,3.0,68,0.00,,,0.01,Wunderground v.1.15,2013-02-15 00:26:00,
2013-02-14 17:36:00,26.1,16.6,30.33,North,10,0.0,3.0,67,0.00,,,0.01,Wunderground v.1.15,2013-02-15 00:36:00,
2013-02-14 17:46:00,26.0,16.2,30.33,North,10,0.0,3.0,66,0.00,,,0.01,Wunderground v.1.15,2013-02-15 00:46:00,
2013-02-14 17:56:00,25.8,16.0,30.33,North,10,0.0,3.0,66,0.00,,,0.01,Wunderground v.1.15,2013-02-15 00:56:00,
2013-02-14 18:07:00,25.7,15.6,30.33,North,10,0.0,3.0,65,0.00,,,0.01,Wunderground v.1.15,2013-02-15 01:07:00,
2013-02-14 18:16:00,25.4,15.3,30.33,North,10,0.0,3.0,65,0.00,,,0.01,Wunderground v.1.15,2013-02-15 01:16:00,
2013-02-14 18:21:00,25.4,15.3,30.35,North,10,0.0,3.0,65,0.00,,,0.01,Wunderground v.1.15,2013-02-15 01:21:00,
2013-02-14 18:31:00,25.3,14.8,30.34,North,10,0.0,3.0,64,0.00,,,0.01,Wunderground v.1.15,2013-02-15 01:31:00,
2013-02-14 18:41:00,25.3,14.8,30.34,North,10,0.0,3.0,64,0.00,,,0.01,Wunderground v.1.15,2013-02-15 01:41:00,
2013-02-14 18:51:00,25.1,14.6,30.35,North,10,0.0,3.0,64,0.00,,,0.01,Wunderground v.1.15,2013-02-15 01:51:00,
2013-02-14 18:56:00,25.1,14.6,30.35,North,10,0.0,3.0,64,0.00,,,0.01,Wunderground v.1.15,2013-02-15 01:56:00,
2013-02-14 19:07:00,25.1,14.6,30.35,North,10,0.0,3.0,64,0.00,,,0.01,Wunderground v.1.15,2013-02-15 02:07:00,
2013-02-14 19:16:00,25.1,14.6,30.35,North,10,0.0,3.0,64,0.00,,,0.01,Wunderground v.1.15,2013-02-15 02:16:00,
2013-02-14 19:21:00,25.1,14.6,30.34,North,10,0.0,3.0,64,0.00,,,0.01,Wunderground v.1.15,2013-02-15 02:21:00,
2013-02-14 19:26:00,25.1,14.6,30.34,North,10,0.0,3.0,64,0.00,,,0.01,Wunderground v.1.15,2013-02-15 02:26:00,
2013-02-14 19:31:00,25.0,14.5,30.35,North,10,0.0,3.0,64,0.00,,,0.01,Wunderground v.1.15,2013-02-15 02:31:00,
2013-02-14 19:41:00,25.0,14.5,30.35,North,10,0.0,3.0,64,0.00,,,0.01,Wunderground v.1.15,2013-02-15 02:41:00,
2013-02-14 19:46:00,25.0,14.5,30.35,North,10,0.0,3.0,64,0.00,,,0.01,Wunderground v.1.15,2013-02-15 02:46:00,
2013-02-14 19:51:00,24.8,14.0,30.35,North,10,0.0,3.0,63,0.00,,,0.01,Wunderground v.1.15,2013-02-15 02:51:00,
2013-02-14 20:01:00,24.8,13.6,30.35,North,10,0.0,3.0,62,0.00,,,0.01,Wunderground v.1.15,2013-02-15 03:01:00,
2013-02-14 20:07:00,24.8,13.2,30.35,North,10,0.0,3.0,61,0.00,,,0.01,Wunderground v.1.15,2013-02-15 03:07:00,
2013-02-14 20:16:00,24.8,13.6,30.35,North,10,0.0,3.0,62,0.00,,,0.01,Wunderground v.1.15,2013-02-15 03:16:00,
2013-02-14 20:26:00,24.8,12.9,30.35,North,10,0.0,3.0,60,0.00,,,0.01,Wunderground v.1.15,2013-02-15 03:26:00,
2013-02-14 20:31:00,24.7,12.8,30.32,North,11,0.0,3.0,60,0.00,,,0.01,Wunderground v.1.15,2013-02-15 03:31:00,
2013-02-14 20:46:00,24.7,12.4,30.33,North,11,0.0,3.0,59,0.00,,,0.01,Wunderground v.1.15,2013-02-15 03:46:00,
2013-02-14 21:01:00,24.5,11.8,30.33,North,11,0.0,3.0,58,0.00,,,0.01,Wunderground v.1.15,2013-02-15 04:01:00,
2013-02-14 21:16:00,24.2,11.5,30.32,NNE,18,0.0,3.0,58,0.00,,,0.01,Wunderground v.1.15,2013-02-15 04:16:00,
2013-02-14 21:31:00,24.1,11.0,30.29,NNE,18,0.0,3.0,57,0.00,,,0.01,Wunderground v.1.15,2013-02-15 04:31:00,
2013-02-14 21:46:00,23.9,10.9,30.29,NNE,18,0.0,3.0,57,0.00,,,0.01,Wunderground v.1.15,2013-02-15 04:46:00,
2013-02-14 21:51:00,23.8,10.4,30.29,NNE,18,0.0,3.0,56,0.00,,,0.01,Wunderground v.1.15,2013-02-15 04:51:00,
2013-02-14 22:01:00,23.6,10.2,30.29,NNE,18,0.0,3.0,56,0.00,,,0.01,Wunderground v.1.15,2013-02-15 05:01:00,
2013-02-14 22:07:00,23.3,9.9,30.28,NNE,18,0.0,3.0,56,0.00,,,0.01,Wunderground v.1.15,2013-02-15 05:07:00,
2013-02-14 22:11:00,23.2,10.2,30.28,NNE,18,0.0,3.0,57,0.00,,,0.01,Wunderground v.1.15,2013-02-15 05:11:00,
2013-02-14 22:16:00,23.2,10.2,30.28,NNE,18,0.0,3.0,57,0.00,,,0.01,Wunderground v.1.15,2013-02-15 05:16:00,
2013-02-14 22:26:00,22.9,10.3,30.28,NNE,18,0.0,3.0,58,0.00,,,0.01,Wunderground v.1.15,2013-02-15 05:26:00,
2013-02-14 22:36:00,22.7,10.5,30.30,NNE,18,0.0,3.0,59,0.00,,,0.01,Wunderground v.1.15,2013-02-15 05:36:00,
2013-02-14 22:46:00,22.4,10.2,30.30,NNE,18,0.0,3.0,59,0.00,,,0.01,Wunderground v.1.15,2013-02-15 05:46:00,
2013-02-14 22:51:00,22.2,10.0,30.30,NNE,18,0.0,3.0,59,0.00,,,0.01,Wunderground v.1.15,2013-02-15 05:51:00,
2013-02-14 23:01:00,22.4,10.6,30.30,NNE,18,0.0,3.0,60,0.00,,,0.01,Wunderground v.1.15,2013-02-15 06:01:00,
2013-02-14 23:07:00,22.5,10.7,30.30,NNE,18,0.0,3.0,60,0.00,,,0.01,Wunderground v.1.15,2013-02-15 06:07:00,
2013-02-14 23:16:00,22.7,10.9,30.30,NNE,18,0.0,3.0,60,0.00,,,0.01,Wunderground v.1.15,2013-02-15 06:16:00,
2013-02-14 23:21:00,22.7,10.9,30.29,NE,35,0.0,3.0,60,0.00,,,0.01,Wunderground v.1.15,2013-02-15 06:21:00,
2013-02-14 23:31:00,22.7,10.9,30.29,NE,49,0.0,3.0,60,0.00,,,0.01,Wunderground v.1.15,2013-02-15 06:31:00,
2013-02-14 23:36:00,22.7,10.9,30.33,NE,49,0.0,3.0,60,0.00,,,0.01,Wunderground v.1.15,2013-02-15 06:36:00,
2013-02-14 23:46:00,22.7,10.5,30.33,NE,42,0.0,3.0,59,0.00,,,0.01,Wunderground v.1.15,2013-02-15 06:46:00,
2013-02-14 23:56:00,22.5,10.3,30.33,NE,45,0.0,3.0,59,0.00,,,0.01,Wunderground v.1.15,2013-02-15 06:56:00,